Simultaneous Nadir Overpasses (SNOs) Predictions

Prediction of SNOs between LANDSAT-8 and METOP-A Satellite Orbit:

Table of predicted SNOs for the next 14.0 days since TLE Epoch: 4/13/2019
Index Date (LANDSAT-8) Time (LANDSAT-8) Lat,Lon (LANDSAT-8) SZA (LANDSAT-8 ) Date (METOP-A) Time (METOP-A) Lat,Lon (METOP-A) SZA (METOP-A ) Distance(km) Time Diff (sec)
1 04/15/2019 21:12:36 -81.46, 87.34 105.86 04/15/2019 21:11:43 -81.46, 87.22 105.90 2.06 53
2 04/15/2019 22:02:02 81.47,-104.94 74.15 04/15/2019 22:02:22 81.46,-104.87 74.16 1.36 20
3 04/18/2019 16:46:49 -81.46, 153.80 106.82 04/18/2019 16:45:55 -81.46, 153.89 106.84 1.56 54
4 04/18/2019 17:36:15 81.47, -38.51 73.18 04/18/2019 17:36:35 81.46, -38.65 73.17 2.36 20
5 04/21/2019 12:21:03 -81.46,-139.78 107.77 04/21/2019 12:20:09 -81.46,-139.86 107.81 1.48 54
6 04/21/2019 13:10:29 81.46, 27.88 72.23 04/21/2019 13:10:48 81.46, 27.96 72.24 1.52 19
7 04/24/2019 07:55:17 -81.46, -73.40 108.70 04/24/2019 07:54:22 -81.46, -73.22 108.71 2.86 55
8 04/24/2019 08:44:43 81.46, 94.23 71.29 04/24/2019 08:45:02 81.46, 94.17 71.29 1.10 19




NCC Satellite Simultaneous Nadir Overpasses (SNOs) Prediction Service
